ISS (NAUKA)

Last updated on Sun Jun 21 2026 00:02:11 GMT+0000 (Coordinated Universal Time)

1 49044U 21066A 26171.41461525 .00008813 00000+0 16600-3 0 9996 2 49044 51.6327 284.1189 0004557 208.5194 151.5545 15.49333088571980
UTC large
Height (km)
Speed (km/s)
/
Latitude / Longitude
Inclination (degrees)
Orbital Period (minutes)
Azimuth
Elevation
Range (km)
Doppler Factor

Next 0 passes for location: London (51.5072 / 0.1276)

No passes found over London.
ISS (NAUKA)